CZ-6A DEB, 61083

Orbit data source: Space-Track

CZ-6A DEB, 61083 is space debris in LEO originally from a launch on Tue, 06 Aug 2024 UTC launched from the Taiyaun Space Center, China (TSC). Debris objects in space refer to the collection of defunct objects orbiting the Earth. Examples of debris include non-operational satellites, rocket bodies, and fragments generated from explosions, collisions, or faulty payload assembly.

Loading next visibility...
Identifier
61083, 2024-140MZ
Orbit
LEO
Country
Flag of CNCN / PRC
Related business
Manufacturer
SAST
Mission
Spacecraft
Bus & Motor
Unknown
Mass
Unknown
Launch date (UTC)
2024-08-06 (2 years ago)
Launch vehicle
Unknown
Launch site
Taiyaun Space Center, China (TSC)
Object type
Payload
Rocket body
Debris
Shape & HBR
Unknown shape, 0.2 m
Radar Cross Section
Medium (>0.1 m² and <1 m²)

Expand to show TLE details & history
Last TLE update: 16 hours ago

TLE from 16 hours ago
0 CZ-6A DEB
1 61083U 24140MZ  26171.19229325  .00000251  00000-0  65563-4 0  9996
2 61083  88.8949 262.3577 0095529 315.9793  43.3829 14.43789499 95646
Epoch: 2026-06-20T04:36Z
TLE epoch observation values (Epoch: 2026-06-20T04:36:54.136Z)
Latitude
-0.00013°
Longitude
-75.27831°
Altitude
699.93 km
Speed
7.532 km/s
True Right ascension
17h 29m 25s
True Declination
0° 00' 00"
Sunlit
Object was in full shadow at epoch
Visualization orbit readout
Latitude
Unknown
Longitude
Unknown
Altitude
Unknown
Speed
Unknown
Apparent Right ascension
Unknown
Apparent Declination
Unknown
Sunlit
N/A
Visualization observer readout
Local Sidereal Time
07:22:33
Azimuth
Unknown
Elevation
Unknown
Doppler factor
Unknown
Orbital elements
Apogee altitude
810.95 km
Perigee altitude
674.896 km
Semi-major axis
7,121.06 km
Eccentricity
0.00955
Inclination
88.8949°
RAAN
262.3577°
Arg. of periapsis
315.9793°
True anomaly
44.14136°
Mean anomaly
43.3829°
Eccentric anomaly
43.76147°
Mean motion
3.61182 °/min
Orbital period
99.67 mins
BSTAR
0.000065563
Loading maneuver chart data...
Computing Atmospheric mass density...
Loading historical data...
Loading historical data...
Loading historical data...
Loading historical data...
Loading historical data...
Loading historical data...
Loading historical data...

Documentation

Showing up to 5 results
|